Preview of NWS' New Version of Forecast
This preview is not operational and should not be used for support decisions.

Regional Weather Roundup (RWR)

Issued by National Weather Service (NWS)

                            
000
ASUS44 KMEG 220110
RWRTN 
TENNESSEE HOURLY STATE WEATHER ROUNDUP
NATIONAL WEATHER SERVICE MEMPHIS TN
800 PM CDT SUN JUL 21 2019

TNZ002-004-019-021-049-052-054-088>092-220200-
WEST TENNESSEE
  
CITY           SKY/WX    TMP DP  RH WIND       PRES   REMARKS
MEMPHIS INTL   MOCLDY    84  78  82 S12       29.95S HX  95           
NWS MEMPHIS      N/A     83 N/A N/A MISG        N/A                   
JACKSON        FAIR      82  76  81 SW6       29.94S                  
DYERSBURG      FAIR      83  76  79 S3        29.93F HX  91           
SOMERVILLE     CLEAR     81  75  83 S5        29.94F                  
COVINGTON      CLEAR     81  77  89 S5        29.93S                  
UNION CITY     CLEAR     84  77  79 S7        29.89F HX  94           
BOLIVAR        CLEAR     81  75  83 CALM      29.94F                  
PARIS          CLEAR     81  77  89 CALM      29.93R                  
HUNTINGDON     CLEAR     84  77  79 SW5       29.92S HX  94           
LEXINGTON      CLEAR     82  77  83 S6        29.93R HX  91           
SELMER         CLEAR     81  77  89 VRB5      29.94F                  
SAVANNAH       CLEAR     82  77  83 S7        29.94F HX  91           
$$

TNZ008-025-027-028-033-062-065-066-220200-
NORTH MIDDLE TENNESSEE
  
CITY           SKY/WX    TMP DP  RH WIND       PRES   REMARKS
NASHVILLE      MOCLDY    84  73  69 S3        29.94F HX  90           
PORTLAND       CLEAR     81  75  83 CALM      29.94S                  
CLARKSVILLE    FAIR      84  76  76 SW6       29.93R HX  93           
LEBANON        CLEAR     82  75  78 S6        29.93R                  
SMYRNA         FAIR      83  76  79 S5        29.95S HX  91           
MURFREESBORO   CLEAR     82  75  78 S8        29.93S                  
LIVINGSTON     CLEAR     77  73  88 CALM      29.99R                  
GALLATIN       PTCLDY    82  77  83 CALM      29.96S HX  91           
CROSSVILLE     FAIR      75  72  90 CALM      30.05R                  
ROCKWOOD       CLEAR     75  73  94 CALM      30.03R                  
$$

TNZ061-075-076-078-094-096-097-220200-
SOUTH MIDDLE TENNESSEE
  
CITY           SKY/WX    TMP DP  RH WIND       PRES   REMARKS
LAWRENCEBURG   CLEAR     81  75  83 CALM      29.97S                  
LEWISBURG      CLEAR     81  75  83 CALM      29.96S                  
FAYETTEVILLE   CLEAR     81  75  83 SW5       29.98S                  
TULLAHOMA      CLEAR     79  73  83 CALM      29.98S                  
WINCHESTER     CLEAR     77  73  88 E3        29.98S                  
MCMINNVILLE    CLEAR     79  73  83 CALM      29.98S                  
COLUMBIA       CLEAR     82  81  94 S3        29.94S HX  95           
SHELBYVILLE    CLEAR     79  72  78 S3        29.97S                  
$$

TNZ017-018-042-046-047-220200-
NORTHEAST TENNESSEE
  
CITY           SKY/WX    TMP DP  RH WIND       PRES   REMARKS
TRI CITIES     MOCLDY    81  70  69 SW5       30.01S                  
ELIZABETHTON   MOCLDY    77  73  88 CALM      30.01S                  
GREENEVILLE    CLEAR     77  72  83 CALM      30.02S                  
$$

TNZ012-013-036-069-073-074-220200-
CENTRAL EAST TENNESSEE
  
CITY           SKY/WX    TMP DP  RH WIND       PRES   REMARKS
KNOXVILLE      FAIR      81  71  71 SW6       29.98R                  
OAK RIDGE      FAIR      82  72  71 CALM      30.00R                  
DOWNTOWN KNOXV CLEAR     79  75  89 CALM      29.99R                  
GATLINBURG     CLEAR     82  72  69 W6        29.99S                  
MORRISTOWN     CLEAR     81  73  78 W3        30.00S                  
JACKSBORO      CLEAR     75  73  94 CALM      30.03S                  
$$

TNZ083-085-099-220200-
SOUTHEAST TENNESSEE
  
CITY           SKY/WX    TMP DP  RH WIND       PRES   REMARKS
CHATTANOOGA    MOCLDY    85  71  63 SW7       29.98S HX  90           
DAYTON         PTCLDY    82  73  74 CALM      29.97R                  
$$

SKY/WX REPORTED AS FAIR MEANS FEW OR NO CLOUDS BELOW
12 THOUSAND FEET.